Timeline UpdatesTrip UpdatesNews PostsPvt PostsTravel TipsAdmin PostsConv PostsFollowed PostsChat RequestsBlog PostsPNR Posts

Disclaimer
Search
 
 
Wed Jul 23, 2014 11:17:17 ISTHomeTrainsΣChainsAtlasPNRForumGalleryNewsFAQTripsMembersLoginFeedback
No Recent News for this Train
Other Trains in the News **new
Latest...
Will be diverted via Malkhedi-Agasod chord line avoiding Bina station from 24th march 2014
Wed Jan 29, 2014 (09:06PM)
⇐ Return Journey: Train# 18508

18507/Hirakud (Hirakund) Express

Mar 24 2014 (6:58PM)
Change Departure Station:
Change Arrival Station:
Post a Train Travel TipPost a Train Travel Tip **new
Post a Comment/Question/Picture/VideoPost a Comment/Question/Picture/Video
Pantry/Catering
✓ Pantry Car Avbl
✓ Catering Avbl
Loco/Rake Reversals
SBP/Sambalpur Junction (3); JSG/Jharsuguda Junction (5); TLHR/Talcher;
RSA - Rake Sharing
Rake/Coach Composition
LOCO-SLR-GEN-GEN-GEN-GEN-S1-S2-S3-S4-S5-S6-PC-S7-S8-S9-S10-A1-B1-B2-GEN-GEN-SLR;; News/163411
Loco
VSKP-JSG- WDM-3A VSKP JSG-ASR -WAP-1/4 GZB Blog entry #541879-2
News    PNR    Forum    Time-Table    Availability    Fare Chart    Map    Arr/Dep History    Trips    Gallery    ΣChains    X/O    Timeline    
Travel Time: 11h 40m    7 halts    Distance: 590 km    Avg Speed: 50 km/hr
Type: Mail/Express
Zone: ECoR/East Coast
Departs @ 12:15 (Avg 1h 16m late)
Platform# 2
S  W  S
Mathura Junction/MTJ 
Arrives @ 23:55 (Avg 38m late)
Platform# 2
S  W  S
Amritsar Junction/ASR 

7 halts. 96 intermediate Stations between Mathura Junction and Amritsar Junction

Show ALL intermediate Stations  Show Old Time-Table

#CodeStation NameX/OArrivesAvgDepartsAvgHaltPFDay#KmSpeedElevZoneAddress
1VSKPVisakhapatnam Junction (8)  -23:50+181-1984.56711mECoRVishakhapatnam 530001, Andhra Pradesh
2VZMVizianagaram Junction (5)XO  00:45+1800:50+185m--2-1923.47963mECoRVizianagaram, Andhra Pradesh
3CHESrikakulam Road (4)  01:43+1401:45+132m--2-1853.86034mECoRsrikakulam road ph .no. 08942-287222, Andhra Pradesh
4PSAPalasa (3)  02:58+803:00+92m--2-1780.98131mECoRKasibugga, Andhra Pradesh
5BAMBrahmapur (3)X  03:55+2004:00+205m12-1706.57227mECoRBerhampur, Odisha
6CAPChatrapur  04:18+2404:19+251m--2-1685.17136mECoRChatrapur, Odisha
7BALUBalugaon (3)  05:05+2405:06+251m--2-1630.45411mECoR752030, Odisha
8KURKhurda Road Junction (7)XO  06:25+806:40+1015m--2-1559.44525mECoRKhordha, Odisha
9BBSBhubaneswar (4)X  07:05+1107:10+125m22-1540.45540mECoRBhubaneshwar, Odisha
10DNKLDhenkanal (2)  08:17+2108:18+231m--2-1478.77559mECoRDhenkanal, Odisha
11TLHRTalcher09:00+3609:25+3625m--2-1426.51686mECoRSub-division Angul district, Odisha
12ANGLAngul (2)X  10:33+710:35+112m--2-1408.473120mECoRAngul District, Odisha
13BONABoinda  11:07+3111:08+331m--2-1369.478292mECoRState Highway 62, Odisha
14RAIRRairakhol  11:44+3811:45+391m--2-1322.957144mECoRSH 24, Odisha
15SBPSambalpur Junction (3)13:00+3313:20+3420m12-1251.815159mECoRSambalpur, Odisha
16SBPDSambalpur Road  13:26+2413:28+242m22-1250.322161mECoRSambalpur, Odisha
17JSGJharsuguda Junction (5)XOO14:40+3115:15+2235m12-1203.278236mSERJharsuguda, Odisha
18BRJNBrajrajnagar  15:24+3015:25+301m--2-1191.559212mSECRBrajrajnagar, Odisha
19BPHBelpahar  15:34+3215:35+361m--2-1182.685235mSECRBelpahar, Odisha
20RIGRaigarh (3)  16:11+4316:13+432m--2-1131.589220mSECRRaigarh, Chhattisgarh
21KHSKharsiaX  16:36+1:0216:37+1:041m--2-1097.671259mSECRNational Highway 200, Chhattisgarh
22SKTSakti (4)  16:50+1:0516:51+1:061m--2-1082.252237mSECRJanjgir-Champa, Chhattisgarh
23CPHChampa Junction (3)X  17:26+5917:31+585m22-1051.870264mSECRNational Highway 200 (07819-245767), Chhattisgarh
24AKTAkaltara (4)  17:53+1:0017:54+1:011m--2-1026.029284mSECRDist. Janjgir Champa, Chhattisgarh
25BSPBilaspur Junction (8)  18:50+3119:05+3715m52-998.862271mSECRBilaspur, Chhattisgarh
26PNDPendra Road  20:43+1:1220:45+1:122m--2-897.261620mSECRBilaspur district, Chhattisgarh
27APRAnuppur Junction (3)  21:35+1:1321:40+1:135m--2-846.155487mSECRAnuppur, Madhya Pradesh
28SDLShahdol  22:25+1:0422:27+1:052m--2-805.259466mSECR, Madhya Pradesh
29UMRUmaria (3)X  23:35+5423:37+542m--2-737.933469mSECRUmaria, Madhya Pradesh
30KMZKatni Murwara  01:25+2701:35+3110m--3-679.174385mWCRMP 483504 ?, Madhya Pradesh
31DMODamoh (2)  03:03+3803:05+392m--3-570.066365mWCRDamoh, Madhya Pradesh
32SGOSaugor (2)  04:15+4604:20+455m--3-492.960519mWCRMP 470001Madhya pradesh, Madhya Pradesh
33KYEKhurai (5)  05:13+3805:15+382m--3-440.127439mWCRKhurai, Madhya Pradesh
34MAKRMalkheri Junction (2)  05:53+2305:55+252m--3-422.955421mWCRGuna, Madhya Pradesh
35LARLalitpur (3)X  07:04+2607:05+401m33-359.772373mNCRLalitpur, Uttar Pradesh
36JHSJhansi Junction (7)X  08:20+2508:28+358m23-269.476259mNCRJhansi, Uttar Pradesh
37GWLGwalior Junction (4)  09:45+4809:50+485m23-171.775214mNCRGwalior, Madhya Pradesh
38AGCAgra Cantt. (6)X  11:25+1:0211:30+1:035m13-53.777174mNCRAgra, Uttar Pradesh
39MTJ»Mathura Junction (10)»  12:12+1:1612:15+1:163m230.067179mNCRMathura, Uttar Pradesh
40NZMDelhi Hazrat Nizamuddin (7)XO  14:15+1:1914:17+1:202m33133.916209mNRNizamuddin East/Sarai KaleKhan Bus Terminal, Delhi NCT
41NDLSNew Delhi (16)  14:45+1:2215:15+1:1530m73141.366215mNRNew Delhi, Delhi NCT
42PNPPanipat Junction (5)  16:37+1:4016:39+1:402m33230.957235mNRPanipat, Haryana
43UMBAmbala Cantt. Junction (7)O  18:35+1:2118:45+1:2310m73340.680278mNRAmbala 133001, Haryana
44LDHLudhiana Junction (7)X  20:10+1:3220:15+1:445m33454.243246mNRLudhiana 141001, Punjab
45JUCJalandhar City Junction (5)  21:35+1:2021:40+1:225m33511.057239mNRJalandhar 144001, Punjab
46BEASBeas Junction (2)  22:18+1:1922:19+1:201m13547.127238mNRBeas, Punjab
47ASR•Amritsar Junction (5)•  23:55+38-23590.1-233mNRAmritsar 143002, Punjab
Scroll to Top
Scroll to Bottom